User: anonymous   Login
Location: Unspecified
(0.0000°N, 0.0000°E)
Time: 17:24:48
(UTC+00:00)
Language:

Meteosat 2 - Orbit

View from above orbital plane
View from above orbital plane
View from above satellite
View from above satellite

Ground track
Ground track

The orbit data is extracted from the following two-line orbital elements,

1 12544U 81057A   18116.19661743 -.00000020  00000-0  00000+0 0  9993
2 12544  14.7425 344.4417 0034014 308.2223 250.2076  0.98722554 94524
Epoch (UTC): 26 April 2018 04:43:07
Eccentricity: 0.0034014
inclination: 14.7425°
perigee height: 36081 km
apogee height: 36371 km
right ascension of ascending node: 344.4417°
argument of perigee: 308.2223°
revolutions per day: 0.98722554
mean anomaly at epoch: 250.2076°
orbit number at epoch: 9452

The dashed part of the orbit path shows where the satellite is in the earth's shadow,  

DLR